User: anonymous   Login
Location: ???????
(55.9142°N, 37.8256°E)
Time: 14:19:10
(UTC+00:00)
Language:

Cosmos 923 Rocket - Orbit

View from above orbital plane
View from above orbital plane
View from above satellite
View from above satellite

Ground track
Ground track

The orbit data is extracted from the following two-line orbital elements,

1 10121U 77059B   24175.92454627  .00000281  00000-0  10420-3 0  9992
2 10121  74.0466 108.0459 0019085 190.6433 169.4320 14.36664070457592
Epoch (UTC): 23 June 2024 22:11:20
Eccentricity: 0.0019085
inclination: 74.0466°
perigee height: 756 km
apogee height: 783 km
right ascension of ascending node: 108.0459°
argument of perigee: 190.6433°
revolutions per day: 14.36664070
mean anomaly at epoch: 169.4320°
orbit number at epoch: 45759

The dashed part of the orbit path shows where the satellite is in the earth's shadow,  

DLR